Location: Alsip
(41.6689°N, 87.7387°W)
Time: 10:39:56
(UTC+00:00)

GEOS 3 Rocket - Pass Details

Date: 25 October 2020
Orbit: 770 x 850 km, 115.0° (Epoch: 25 November)

Event Time Altitude Azimuth Distance (km) Brightness Sun altitude
Exits shadow 01:21:20 47° 188° (S) 1,089 4.2 -27.8°
Maximum altitude 01:22:33 59° 237° (WSW) 958 4.1 -28.1°
Drops below altitude 10° 01:27:51 10° 317° (NW) 2,466 6.7 -29.1°
Sets 01:30:15 0° 321° (NW) 3,411 7.5 -29.5°
